Tracking 18840 objects as of 18-November-2017
HD Live streaming from Space Station
objects crossing your sky now

FENGYUN 1C DEB

Track FENGYUN 1C DEB now!
10-day predictions


NORAD ID: 31418
Int'l Code: 1999-025BTE
Perigee: 805.9 km
Apogee: 890.6 km
Inclination: 99.1 °
Period: 101.7 minutes
Semi major axis: 7219 km
RCS: 0.0149 m2 (small)
Launch date: May 10, 1999
Source: People's Republic of China (PRC)
Launch site: Taiyaun Space Center, China (TSC)

Note: This is SATELLITE DEBRIS
aabbcc
Your satellite tracking list
Your tracking list is empty




NASA's NSSDC Master Catalog

Two Line Element Set (TLE):
1 31418U 99025BTE 17321.10399656  .00001226  00000-0  64225-3 0  9998
2 31418  99.1418  64.0241 0058683   2.3621 357.7818 14.15363332542283
Source of the keplerian elements: AFSPC